Location: ???????
(55.3754°N, 39.3545°E)
Time: 05:22:06
(UTC+00:00)

Cosmos 1452 Rocket - Pass Details

Date: 14 April 2026
Orbit: 764 x 769 km, 74.1° (Epoch: 10 May)

Event Time Altitude Azimuth Distance (km) Brightness Sun altitude
Exits shadow 22:37:09 36° 138° (SE) 1,195 4.2 -23.1°
Maximum altitude 22:38:17 41° 106° (ESE) 1,097 4.3 -23.1°
Drops below altitude 10° 22:43:11 10° 38° (NE) 2,313 7.0 -22.8°
Sets 22:45:40 0° 31° (NNE) 3,243 8.2 -22.7°
